This is the latest recevied weather packets stored in our database for station/object N5KJT. If no packets are shown the sender has not sent any weather packets the latest 10 day(s).
| Time | Temp. | Humidity | Pressure | Rain* | Wind** | Luminosity | Snow |
|---|---|---|---|---|---|---|---|
| 1787638215 | 17.78° C | 59% | 1026.1 hPa | 0 mm | - | 0 W/m² | - |
| 1787637915 | 17.78° C | 61% | 1026.2 hPa | 0 mm | - | 0 W/m² | - |
| 1787637617 | 18.33° C | 62% | 1026.2 hPa | 0 mm | - | 0 W/m² | - |
| 1787637316 | 18.33° C | 61% | 1026.2 hPa | 0 mm | - | 0 W/m² | - |
| 1787637017 | 18.89° C | 58% | 1026.3 hPa | 0 mm | - | 0 W/m² | - |
| 1787636717 | 18.89° C | 56% | 1026.3 hPa | 0 mm | - | 0 W/m² | - |
| 1787636417 | 18.89° C | 56% | 1026.3 hPa | 0 mm | - | 0 W/m² | - |
| 1787636117 | 18.33° C | 57% | 1026.3 hPa | 0 mm | - | 0 W/m² | - |
| 1787635817 | 18.33° C | 59% | 1026.3 hPa | 0 mm | - | 0 W/m² | - |
| 1787635517 | 18.89° C | 60% | 1026.3 hPa | 0 mm | - | 0 W/m² | - |
| 1787635217 | 18.89° C | 58% | 1026.4 hPa | 0 mm | - | 0 W/m² | - |
| 1787634917 | 18.89° C | 60% | 1026.4 hPa | 0 mm | - | 0 W/m² | - |
| 1787634617 | 18.89° C | 59% | 1026.4 hPa | 0 mm | - | 0 W/m² | - |
| 1787634318 | 18.89° C | 57% | 1026.5 hPa | 0 mm | - | 0 W/m² | - |
| 1787634017 | 18.89° C | 57% | 1026.4 hPa | 0 mm | - | 0 W/m² | - |
| 1787633717 | 18.89° C | 58% | 1026.5 hPa | 0 mm | - | 0 W/m² | - |
| 1787633417 | 18.89° C | 59% | 1026.4 hPa | 0 mm | - | 0 W/m² | - |
| 1787633117 | 18.89° C | 58% | 1026.4 hPa | 0 mm | - | 0 W/m² | - |
| 1787632817 | 19.44° C | 59% | 1026.4 hPa | 0 mm | - | 0 W/m² | - |
| 1787632517 | 19.44° C | 55% | 1026.5 hPa | 0 mm | - | 0 W/m² | - |
| 1787632217 | 19.44° C | 55% | 1026.6 hPa | 0 mm | - | 0 W/m² | - |
| 1787631917 | 20° C | 55% | 1026.6 hPa | 0 mm | - | 0 W/m² | - |
| 1787631617 | 20.56° C | 54% | 1026.4 hPa | 0 mm | - | 0 W/m² | - |
| 1787631317 | 21.11° C | 51% | 1026.3 hPa | 0 mm | - | 0 W/m² | - |
| 1787631017 | 21.67° C | 50% | 1026.3 hPa | 0 mm | - | 0 W/m² | - |
* Rain latest hour (hover to see other rain measurements)
** Current wind speed in m/s (hover to see current wind gust speed)